Regional Weather Roundup
Issued by NWS Mt. Holly, NJ

Home | Current Version | Previous Version | Text Only | Print | Product List | Glossary On
Versions: 1 2 3 4 5 6 7 8 9 10 11 12 13 14 15 16 17 18 19 20 21 22 23 24 25 26 27 28 29 30 31 32 33 34 35 36 37 38 39 40 41 42 43 44 45 46 47 48 49 50
000
ASUS41 KPHI 241713
RWRPHI

REGIONAL WEATHER ROUNDUP
NATIONAL WEATHER SERVICE MOUNT HOLLY NJ
100 PM EDT MON SEP 24 2018

NOTE:  "FAIR" INDICATES FEW OR NO CLOUDS BELOW 12,000 FEET WITH NO
SIGNIFICANT WEATHER AND/OR OBSTRUCTIONS TO VISIBILITY.

 * = STATION DOES NOT REPORT PRECIPITATION (E.G. RAIN, SNOW, ETC.)
        OR FOG.

NJZ015>026-241800-
SOUTHERN NEW JERSEY

CITY           SKY/WX    TMP DP  RH WIND       PRES   REMARKS
POMONA         CLOUDY    69  60  73 E12       30.40R
WILDWOOD*        N/A     67  59  75 E15G22    30.39R
MILLVILLE      LGT RAIN  66  61  84 E12       30.39S
MOUNT HOLLY    LGT RAIN  67  58  72 E9        30.42S
TRENTON        PTSUNNY   67  56  67 E15       30.43S

$$
NJZ001>014-241800-
NORTHERN NEW JERSEY

CITY           SKY/WX    TMP DP  RH WIND       PRES   REMARKS
SUSSEX         LGT RAIN  64  52  64 E8        30.48S
ANDOVER*         N/A     65  50  58 VRB5      30.48S
MORRISTOWN     PTSUNNY   68  57  68 E12G18    30.48F
NEWARK         PTSUNNY   67  53  61 NE13G18   30.46F
TETERBORO      PTSUNNY   68  57  68 NE12G20   30.46F
CALDWELL       CLOUDY    65  56  72 E13       30.48S
SOMERVILLE     PTSUNNY   68  56  65 VRB7      30.45S
ALLAIRE*       PTSUNNY   67  55  65 E20G25    30.45S
TOMS RIVER*    CLOUDY    68  58  70 E13G21    30.44R

$$
PAZ043-044-047-054-055-060>062-066>071-241800-
EASTERN PENNSYLVANIA

CITY           SKY/WX    TMP DP  RH WIND       PRES   REMARKS
PHILADELPHIA   CLOUDY    67  58  72 E15G23    30.41F
NORTH PHILA    FAIR      68  58  70 E10       30.44S
BLUE BELL*     PTSUNNY   64  57  77 E14       30.43F
DOYLESTOWN     PTSUNNY   67  56  67 VRB5      30.43S
QUAKERTOWN*    PTSUNNY   66  55  68 E10       30.44F
PERKASIE*      PTSUNNY   64  55  72 E9G16     30.44F
POTTSTOWN      PTSUNNY   64  56  75 E8        30.44S
LANCASTER      PTSUNNY   66  57  72 E15       30.41S
COATESVILLE    PTSUNNY   64  57  77 E17G25    30.42S
READING        FAIR      67  54  63 SE12G21   30.40F
ALLENTOWN      FAIR      69  53  56 E15       30.44F
MOUNT POCONO   FAIR      58  47  66 E12G23    30.46S
LEHIGHTON      FAIR      68  48  49 E9G16     30.45S
WILKES BARRE   FAIR      64  43  46 SE8G18    30.44S

$$
DEZALL-MDZ008-012-015-019-020-241800-
DELAWARE AND EASTERN MARYLAND

CITY           SKY/WX    TMP DP  RH WIND       PRES   REMARKS
WILMINGTON     CLOUDY    67  60  78 E12G21    30.41S
DOVER          CLOUDY    67  60  78 E18G25    30.37S
GEORGETOWN     CLOUDY    67  67 100 E12       30.36S
EASTON         LGT RAIN  66  64  94 E10G17    30.39S
PATUXENT       DRIZZLE   68  65  90 E15G22    30.32  FOG
OCEAN CITY     RAIN      67  66  97 E17G26    30.34S FOG
WALLOPS ISLAND RAIN      70  67  90 NE18      30.32  VSB 1
SALISBURY      LGT RAIN  67  67 100 NE14      30.33S FOG

$$
PAZ001-021-NYZ056-072-MDZ011-DCZ001-241800-
OTHER NEARBY LOCATIONS

CITY           SKY/WX    TMP DP  RH WIND       PRES   REMARKS
HARRISBURG     CLOUDY    66  56  70 SE17      30.39S
STATE COLLEGE  CLOUDY    59  57  94 SE7       30.39S
WILLIAMSPORT   CLOUDY    65  53  65 E9        30.39S
BINGHAMTON     FAIR      63  45  51 SE17G25   30.43S
NEW YORK CITY  CLOUDY    67  53  61 MISG      30.49
BALTIMORE      CLOUDY    67  62  84 E18G26    30.36F
WASHINGTON DC  LGT RAIN  68  62  81 E15G23    30.35S

$$



USA.gov is the U.S. government's official web portal to all federal, state and local government web resources and services.